TimeEST,TemperatureF,Dew PointF,Humidity,Sea Level PressureIn,VisibilityMPH,Wind Direction,Wind SpeedMPH,Gust SpeedMPH,PrecipitationIn,Events,Conditions,WindDirDegrees,DateUTC
12:13 AM,36.9,26.6,66,30.03,10.0,Calm,Calm,-,N/A,,Overcast,0,2012-11-07 05:13:00
12:34 AM,36.7,26.6,67,30.03,10.0,Calm,Calm,-,N/A,,Overcast,0,2012-11-07 05:34:00
12:54 AM,36.9,27.1,68,30.03,10.0,Calm,Calm,-,N/A,,Overcast,0,2012-11-07 05:54:00
1:13 AM,37.4,27.5,67,30.03,10.0,SSE,3.5,-,N/A,,Overcast,150,2012-11-07 06:13:00
1:34 AM,37.9,28.9,70,30.03,10.0,SSE,5.8,-,N/A,,Overcast,150,2012-11-07 06:34:00
1:54 AM,37.9,28.9,70,30.03,10.0,SSE,3.5,-,N/A,,Overcast,160,2012-11-07 06:54:00
2:14 AM,37.8,28.2,68,30.04,10.0,SSE,5.8,-,N/A,,Overcast,150,2012-11-07 07:14:00
2:34 AM,37.9,27.9,67,30.04,10.0,SE,4.6,-,N/A,,Overcast,140,2012-11-07 07:34:00
2:54 AM,37.9,27.7,67,30.05,10.0,ESE,8.1,-,N/A,,Overcast,120,2012-11-07 07:54:00
3:14 AM,37.9,27.5,66,30.05,10.0,ESE,8.1,-,N/A,,Overcast,120,2012-11-07 08:14:00
3:34 AM,37.8,27.5,67,30.04,10.0,ESE,4.6,-,N/A,,Overcast,110,2012-11-07 08:34:00
3:54 AM,37.6,27.3,66,30.04,10.0,ESE,8.1,-,N/A,,Overcast,110,2012-11-07 08:54:00
4:14 AM,37.8,27.5,67,30.05,10.0,ESE,5.8,-,N/A,,Overcast,110,2012-11-07 09:14:00
4:34 AM,38.1,27.5,66,30.05,10.0,East,5.8,-,N/A,,Overcast,100,2012-11-07 09:34:00
4:54 AM,38.3,27.5,65,30.06,10.0,ESE,10.4,-,N/A,,Overcast,110,2012-11-07 09:54:00
5:14 AM,37.9,27.5,66,30.06,10.0,East,8.1,-,N/A,,Overcast,100,2012-11-07 10:14:00
5:34 AM,37.9,28.0,68,30.06,10.0,ESE,10.4,-,N/A,,Overcast,110,2012-11-07 10:34:00
5:54 AM,38.3,27.9,66,30.06,10.0,East,10.4,17.3,N/A,,Overcast,100,2012-11-07 10:54:00
6:14 AM,38.3,28.0,67,30.07,10.0,East,11.5,-,N/A,,Overcast,100,2012-11-07 11:14:00
6:34 AM,38.3,28.4,68,30.07,10.0,East,9.2,-,N/A,,Overcast,100,2012-11-07 11:34:00
6:54 AM,38.3,28.8,69,30.07,10.0,East,6.9,-,N/A,,Overcast,100,2012-11-07 11:54:00
7:14 AM,38.3,29.3,70,30.07,10.0,East,9.2,-,N/A,,Overcast,100,2012-11-07 12:14:00
7:34 AM,38.5,29.3,70,30.08,10.0,East,9.2,-,N/A,,Overcast,100,2012-11-07 12:34:00
7:54 AM,38.5,28.6,68,30.09,10.0,ESE,10.4,-,N/A,,Overcast,110,2012-11-07 12:54:00
8:14 AM,38.7,29.1,69,30.09,10.0,East,6.9,-,N/A,,Overcast,100,2012-11-07 13:14:00
8:34 AM,38.8,28.0,65,30.10,10.0,East,8.1,-,N/A,,Overcast,100,2012-11-07 13:34:00
8:54 AM,38.8,28.8,67,30.10,10.0,ESE,6.9,-,N/A,,Overcast,110,2012-11-07 13:54:00
9:14 AM,39.4,27.5,62,30.10,10.0,ESE,6.9,-,N/A,,Overcast,110,2012-11-07 14:14:00
9:34 AM,39.7,27.0,60,30.10,10.0,East,6.9,-,N/A,,Overcast,100,2012-11-07 14:34:00
9:53 AM,41.0,27.7,59,30.11,10.0,East,6.9,-,N/A,,Overcast,100,2012-11-07 14:53:00
10:14 AM,40.1,28.4,63,30.12,10.0,East,8.1,-,N/A,,Overcast,80,2012-11-07 15:14:00
10:34 AM,39.7,29.3,66,30.12,10.0,East,9.2,-,N/A,,Overcast,100,2012-11-07 15:34:00
10:53 AM,40.6,29.3,64,30.13,10.0,East,9.2,16.1,N/A,,Overcast,100,2012-11-07 15:53:00
11:14 AM,41.0,29.5,64,30.13,10.0,East,10.4,16.1,N/A,,Overcast,90,2012-11-07 16:14:00
11:34 AM,40.5,29.8,66,30.13,10.0,ESE,10.4,-,N/A,,Overcast,110,2012-11-07 16:34:00
11:53 AM,40.6,30.4,67,30.14,10.0,East,9.2,-,N/A,,Overcast,100,2012-11-07 16:53:00
12:14 PM,40.3,30.9,69,30.13,10.0,East,9.2,-,N/A,,Overcast,100,2012-11-07 17:14:00
12:34 PM,40.3,31.5,71,30.13,10.0,East,9.2,-,N/A,,Overcast,90,2012-11-07 17:34:00
12:54 PM,40.1,30.6,69,30.13,10.0,ESE,10.4,-,N/A,,Overcast,110,2012-11-07 17:54:00
1:14 PM,40.1,30.6,69,30.12,10.0,ESE,9.2,-,N/A,,Overcast,110,2012-11-07 18:14:00
1:34 PM,40.5,30.7,68,30.11,10.0,East,8.1,-,N/A,,Overcast,100,2012-11-07 18:34:00
1:54 PM,40.6,30.7,68,30.11,10.0,East,6.9,-,N/A,,Overcast,100,2012-11-07 18:54:00
2:14 PM,41.2,30.4,65,30.10,10.0,East,8.1,-,N/A,,Overcast,100,2012-11-07 19:14:00
2:34 PM,40.6,30.6,67,30.10,10.0,East,5.8,-,N/A,,Overcast,100,2012-11-07 19:34:00
2:54 PM,40.5,30.6,68,30.10,10.0,East,5.8,-,N/A,,Overcast,100,2012-11-07 19:54:00
3:14 PM,40.5,30.7,68,30.10,10.0,East,5.8,-,N/A,,Overcast,80,2012-11-07 20:14:00
3:34 PM,40.5,30.4,67,30.11,10.0,ENE,4.6,-,N/A,,Overcast,70,2012-11-07 20:34:00
3:54 PM,40.5,29.8,66,30.11,10.0,East,5.8,-,N/A,,Overcast,80,2012-11-07 20:54:00
4:14 PM,40.5,29.5,65,30.12,10.0,ENE,3.5,-,N/A,,Overcast,60,2012-11-07 21:14:00
4:39 PM,40.1,28.4,63,30.13,10.0,ENE,5.8,-,N/A,,Overcast,60,2012-11-07 21:39:00
4:54 PM,40.1,28.2,63,30.13,10.0,ENE,3.5,-,N/A,,Overcast,60,2012-11-07 21:54:00
5:14 PM,39.4,28.4,65,30.13,10.0,Calm,Calm,-,N/A,,Overcast,0,2012-11-07 22:14:00
5:33 PM,39.2,28.0,64,30.13,10.0,NNE,3.5,-,N/A,,Overcast,30,2012-11-07 22:33:00
5:54 PM,38.7,28.6,67,30.13,10.0,NE,3.5,-,N/A,,Overcast,50,2012-11-07 22:54:00
6:14 PM,38.8,28.4,66,30.13,10.0,Calm,Calm,-,N/A,,Overcast,0,2012-11-07 23:14:00
6:34 PM,38.7,29.3,69,30.14,10.0,NNE,3.5,-,N/A,,Overcast,20,2012-11-07 23:34:00
6:54 PM,38.5,28.9,69,30.14,10.0,NE,3.5,-,N/A,,Overcast,50,2012-11-07 23:54:00
7:14 PM,38.1,28.4,68,30.14,10.0,NE,4.6,-,N/A,,Overcast,50,2012-11-08 00:14:00
7:34 PM,37.6,28.0,68,30.15,10.0,NE,4.6,-,N/A,,Overcast,40,2012-11-08 00:34:00
7:54 PM,38.3,27.5,65,30.15,10.0,NNE,3.5,-,N/A,,Overcast,30,2012-11-08 00:54:00
8:14 PM,38.1,28.4,68,30.15,10.0,NNW,3.5,-,N/A,,Overcast,340,2012-11-08 01:14:00
8:34 PM,38.7,27.9,65,30.15,10.0,Calm,Calm,-,N/A,,Overcast,0,2012-11-08 01:34:00
8:54 PM,37.2,29.3,73,30.16,10.0,NW,3.5,-,N/A,,Overcast,320,2012-11-08 01:54:00
9:14 PM,37.0,29.1,73,30.16,10.0,Calm,Calm,-,N/A,,Overcast,0,2012-11-08 02:14:00
9:34 PM,37.4,28.6,70,30.16,10.0,Calm,Calm,-,N/A,,Overcast,0,2012-11-08 02:34:00
9:54 PM,36.7,29.3,75,30.17,10.0,WNW,4.6,-,N/A,,Overcast,300,2012-11-08 02:54:00
10:14 PM,37.0,28.9,73,30.16,10.0,Calm,Calm,-,N/A,,Overcast,0,2012-11-08 03:14:00
10:34 PM,37.4,28.4,70,30.16,10.0,Calm,Calm,-,N/A,,Overcast,0,2012-11-08 03:34:00
10:54 PM,37.0,28.8,72,30.16,10.0,NNW,3.5,-,N/A,,Overcast,330,2012-11-08 03:54:00
11:13 PM,37.4,28.2,69,30.16,10.0,Calm,Calm,-,N/A,,Overcast,0,2012-11-08 04:13:00
11:34 PM,37.0,28.4,71,30.15,10.0,Calm,Calm,-,N/A,,Overcast,0,2012-11-08 04:34:00
11:54 PM,36.5,28.9,74,30.15,10.0,Calm,Calm,-,N/A,,Overcast,0,2012-11-08 04:54:00